x

East Scotia Slope (44137) Wave Buoy

6:00pm - Mon 29th Jun 2015 All times are EDT. -4 hours from GMT.

  • Sig Wave height 8.5ft
  • Peak Period 10s
  • Wind
    7mph, 9mph gusts
  • Sea Temp 65°f
  • Air Temp 64°f
  • Sea Pressure 1015.1mb
  • East Scotia Slope
  • East Scotia Slope

More Historic Weather Station data

Upgrade to MSW Pro to gain access to the past 30 days of data for over 8000 Wavebouys and Weather Stations around the globe.

Join Pro

Comparision Forecast

View Surf forecast
   
Mon 06/29 6:00pm 8.5ft 10s 7 9 mph 1015.1mb 65f 64f
5:00pm 9ft 9s 9 11 mph 1014.9mb 65f 64f
4:00pm 9ft 11s 11 13 mph 1014.5mb 65f 64f
3:00pm 9ft 8s 11 16 mph 1014.4mb 65f 64f
2:00pm 9ft 8s 11 13 mph 1013.9mb 64f 63f
12:00pm 9ft 8s 11 13 mph 1013mb 62f 63f
11:00am 9ft 9s 13 16 mph 1012.9mb 61f 63f
10:00am 9ft 10s 11 13 mph 1012.6mb 60f 62f
9:00am 8.5ft 9s 13 16 mph 1012mb 59f 63f
8:00am 8ft 8s 11 13 mph 1011.7mb 59f 62f
7:00am 9ft 9s 13 16 mph 1011.3mb 59f 62f
6:00am 9ft 8s 13
mph
1010.6mb 59f 61f
5:00am 8.5ft 8s 13 16 mph 1010mb 60f 63f
4:00am 11ft 9s 16 18 mph 1009.6mb 62f 63f
3:00am 10.5ft 8s 18 20 mph 1009.3mb 64f 65f
2:00am 10.5ft 8s 18 22 mph 1009.1mb 65f 65f
1:00am 11.5ft 8s 18 20 mph 1009.1mb 65f 67f
12:00am 11ft 8s 18 25 mph 1009.3mb 65f 68f
Sun 06/28 11:00pm 13ft 8s 22 27 mph 1009.7mb 65f 66f
10:00pm 12.5ft 8s 22 60 mph 1010.8mb 65f 65f
9:00pm 11ft 7s 36 45 mph 1011.2mb 65f 64f
8:00pm 10ft 7s 31 38 mph 1012.5mb 65f 63f
7:00pm 7.5ft 6s 36 45 mph 1013.9mb 65f 62f
6:00pm 7ft 6s 34 38 mph 1015.2mb 65f 63f
5:00pm 6ft 5s 31 38 mph 1017.1mb 65f 63f
4:00pm 6ft 5s 29 36 mph 1017.8mb 64f 63f
3:00pm 5.5ft 5s 27 34 mph 1019.6mb 64f 63f
2:00pm 4.5ft 4s 27 31 mph 1019.7mb 64f 63f
1:00pm 4.5ft 4s 25 31 mph 1020.6mb 64f 62f
12:00pm 4.5ft 4s 20 25 mph 1021.8mb 64f 61f
11:00am 4.5ft 8s 20 25 mph 1023mb 64f 60f
10:00am 4ft 9s 20 25 mph 1023.5mb 64f 59f
9:00am 4ft 8s 20 25 mph 1023.9mb 64f 59f
8:00am 4ft 9s 16 18 mph 1024.8mb 64f 57f
7:00am 4ft 9s 18 22 mph 1024.5mb 64f 56f
6:00am 3.5ft 10s 16 18 mph 1024.3mb 64f 55f
5:00am 3.5ft 10s 13 16 mph 1024.7mb 64f 55f
4:00am 3ft 8s 13 16 mph 1024.3mb 64f 55f
3:00am 3.5ft 10s 9 13 mph 1024.5mb 64f 55f
2:00am 3.5ft 8s 7 11 mph 1024.7mb 65f 56f
1:00am 3.5ft 10s 4 7 mph 1025.4mb 65f 56f
12:00am 3.5ft 8s 2 4 mph 1025.5mb 65f 56f
Sat 06/27 11:00pm 4ft 9s 2 7 mph 1025.3mb 65f 56f
10:00pm 4ft 9s 2 7 mph 1025.4mb 65f 56f
9:00pm 4ft 10s 4 9 mph 1025.1mb 65f 55f
8:00pm 4.5ft 8s 9 11 mph 1024.6mb 65f 55f
7:00pm 4ft 9s 7 11 mph 1024.5mb 65f 55f
6:00pm 4ft 10s 9 11 mph 1024.1mb 65f 55f
5:00pm 4ft 9s 13 18 mph 1023mb 65f 55f
4:00pm 4ft 9s 13 18 mph 1022.9mb 65f 55f
3:00pm 3.5ft 4s 13 18 mph 1022.8mb 65f 55f
2:00pm 3.5ft 5s 16 18 mph 1022.4mb 65f 55f
1:00pm 3.5ft 5s 16 18 mph 1021.7mb 65f 56f
12:00pm 3.5ft 5s 16 18 mph 1022.2mb 65f 56f
11:00am 3.5ft 5s 16 18 mph 1022mb 65f 57f
10:00am 3.5ft 5s 18 20 mph 1021.2mb 65f 57f
9:00am 4ft 5s 18 20 mph 1020.4mb 64f 58f
8:00am 4ft 5s 16 18 mph 1019.9mb 64f 58f
7:00am 4.5ft 5s 18 20 mph 1018.7mb 64f 59f
6:00am 4ft 5s 20 22 mph 1017.7mb 64f 58f
5:00am 4ft 4s 18 20 mph 1016.1mb 64f 58f
4:00am 3.5ft 9s 18 22 mph 1015mb 64f 59f
3:00am 3ft 8s 18 20 mph 1014.7mb 64f 58f
2:00am 3ft 8s 16 20 mph 1014.8mb 64f 59f
1:00am 2.5ft 8s 16 20 mph 1014.6mb 64f 61f
12:00am 2.5ft 8s 16 20 mph 1014.7mb 64f 61f
Fri 06/26 11:00pm 2.5ft 8s 16 18 mph 1015.4mb 64f 60f
10:00pm 2.5ft 8s 13 16 mph 1016mb 64f 61f
9:00pm 2.5ft 7s 11 13 mph 1016.8mb 64f 62f
8:00pm 2.5ft 8s 4 9 mph 1017.2mb 64f 63f
7:00pm 2.5ft 8s 4
mph
1016.6mb 64f 64f
6:00pm 2.5ft 8s 9 11 mph 1016.6mb 64f 64f
5:00pm 2.5ft 8s 9 11 mph 1016.6mb 64f 64f
4:00pm 2.5ft 7s 9 11 mph 1017.6mb 64f 64f
3:00pm 2.5ft 8s 9 13 mph 1017.7mb 64f 65f
2:00pm 2.5ft 8s 11 13 mph 1017.7mb 64f 64f
1:00pm 3ft 8s 11
mph
1018mb 64f 64f
12:00pm 3.5ft 8s 9 11 mph 1018.2mb 64f 64f
11:00am 3ft 8s 11 13 mph 1018.1mb 64f 64f
10:00am 3.5ft 9s 13 16 mph 1017.9mb 63f 64f
9:00am 3.5ft 9s 11 13 mph 1017.5mb 63f 63f
8:00am 3.5ft 8s 11 13 mph 1017.5mb 63f 63f
7:00am 4ft 7s 11 13 mph 1017.4mb 63f 62f
6:00am 4.5ft 8s 11 13 mph 1017.2mb 63f 62f
5:00am 4.5ft 7s 13
mph
1016.6mb 63f 61f
4:00am 4.5ft 8s 11 13 mph 1016.1mb 63f 61f
3:00am 5ft 5s 13 16 mph 1015.7mb 63f 62f
2:00am 5ft 6s 16 18 mph 1015.1mb 63f 62f
1:00am 5ft 8s 18 20 mph 1015mb 63f 62f
12:00am 5.5ft 6s 18 22 mph 1015mb 63f 62f